User: anonymous   Login
Location: Asheville, NC
(35.6000°N, 82.5500°W)
Time: 12:58:41
(UTC-05:00)
Language:

M-CUBED/EXP-1 PRIME - Orbit

View from above orbital plane
View from above orbital plane
View from above satellite
View from above satellite

Ground track
Ground track

The orbit data is extracted from the following two-line orbital elements,

1 37855U 11061F   18016.88274519 +.00000717 +00000-0 +44983-4 0  9994
2 37855 101.7226 002.0014 0177902 169.8222 190.6669 15.03986157338435
Epoch (UTC): 16 January 2018 21:11:09
Eccentricity: 0.0177902
inclination: 101.7226°
perigee height: 431 km
apogee height: 678 km
right ascension of ascending node: 2.0014°
argument of perigee: 169.8222°
revolutions per day: 15.03986157
mean anomaly at epoch: 190.6669°
orbit number at epoch: 33843

The dashed part of the orbit path shows where the satellite is in the earth's shadow,  

DLR